Temp
5 5 5 5 6 5 5 6 6 6 6 6 6 6 5 5 5 5 5 5 6 6 6 6 7 6 7 8 8 7 8 8 8
5 5 5 6 6 5 6 5 5 6 6 6 5 5 5 5 5 5 5 5 6 6 6 6 7 7 7 7 8 8 8 8 8
5 5 5 5 5 5 6 5 5 5 5 6 5 5 5 5 5 5 5 5 6 6 6 7 7 7 8 8 8 8 8 8 8
5 5 5 5 5 5 5 6 6 5 5 5 5 5 4 4 4 5 5 5 5 5 6 6 7 7 8 8 8 8 8 8 8
5 4 4 4 5 5 5 5 5 6 6 4 4 4 4 5 4 5 5 4 4 5 5 6 6 7 8 8 8 8 8 8 8
4 4 4 4 4 4 4 4 4 4 5 6 6 4 4 4 4 4 4 4 5 4 4 5 5 6 6 7 8 8 8 8 8
4 4 4 4 4 4 4 4 4 4 4 4 5 6 6 5 5 4 4 4 5 5 5 5 4 5 5 6 8 8 8 8 8
4 4 4 4 4 4 4 4 4 4 4 4 4 5 5 5 5 5 5 5 5 5 5 5 4 4 5 4 4 7 7 7 7
4 4 4 4 4 4 4 4 3 4 3 4 4 3 4 4 4 5 5 4 4 5 4 4 4 4 4 4 4 3 5 6 7
4 4 4 4 4 3 3 3 3 3 4 3 4 4 3 3 3 3 4 5 5 4 4 4 4 4 4 4 4 4 4 5 6
4 4 4 4 4 4 4 3 3 3 3 3 3 3 4 3 3 3 3 4 5 5 4 4 4 4 4 4 4 4 4 4 5
3 3 3 3 4 4 4 4 4 4 3 3 3 3 3 3 3 3 3 3 3 4 4 4 4 4 4 4 5 4 3 3 3
2 2 2 3 3 3 3 3 3 4 4 4 3 3 3 3 3 2 3 3 3 3 3 4 4 3 4 4 4 4 4 3 3
0 0 1 1 2 2 2 2 3 3 3 4 4 3 3 3 3 3 2 2 3 3 3 3 4 4 3 3 4 4 4 3 3
-1 -1 -1 -1 -0 0 1 2 2 2 3 3 3 3 3 3 3 2 2 3 2 3 3 3 3 3 3 3 3 3 3 3 3
-1 -1 -1 -1 -1 -0 0 0 1 1 2 3 3 3 2 2 2 2 2 2 2 3 2 2 3 3 2 3 3 3 3 3 2
-3 -3 -3 -2 -2 -2 -1 -0 0 0 1 1 2 3 2 1 1 2 2 1 2 2 3 2 2 2 3 2 2 2 2 2 3
-5 -5 -5 -4 -4 -3 -3 -2 -2 -1 -1 -1 -0 1 2 3 2 0 1 1 2 1 2 2 2 2 2 2 2 2 2 2 2
-9 -9 -9 -9 -8 -7 -7 -6 -5 -4 -3 -3 -3 -3 -1 1 3 2 -0 0 1 1 1 1 2 2 2 2 2 2 2 2 2
-12 -13 -13 -12 -12 -12 -11 -10 -9 -8 -7 -6 -5 -4 -5 -5 -2 3 3 -1 -1 -0 1 1 1 1 1 1 2 2 2 2 2
Height
3179 3178 3178 3178 3178 3177 3177 3176 3177 3177 3177 3179 3180 3181 3181 3182 3182 3183 3184 3184 3185 3185 3185 3185 3185 3186 3187 3187 3188 3188 3188 3188 3188
3178 3178 3178 3177 3177 3177 3176 3177 3176 3176 3177 3178 3180 3181 3181 3182 3182 3183 3184 3184 3184 3185 3185 3185 3186 3186 3188 3187 3188 3188 3188 3189 3188
3177 3177 3177 3177 3177 3177 3176 3176 3176 3175 3176 3177 3178 3179 3181 3181 3182 3182 3183 3183 3183 3183 3183 3184 3184 3185 3186 3187 3187 3188 3188 3189 3188
3176 3175 3176 3176 3176 3175 3176 3175 3174 3175 3175 3175 3176 3177 3178 3179 3180 3181 3182 3182 3182 3181 3181 3182 3182 3183 3184 3185 3185 3186 3187 3188 3188
3174 3174 3174 3174 3174 3174 3174 3174 3175 3174 3173 3173 3174 3175 3176 3177 3177 3178 3179 3180 3180 3180 3180 3180 3180 3180 3181 3182 3183 3184 3185 3187 3187
3172 3172 3172 3172 3172 3172 3172 3172 3172 3172 3172 3171 3170 3171 3172 3173 3175 3176 3176 3177 3178 3178 3178 3178 3178 3179 3179 3179 3180 3181 3183 3184 3185
3168 3168 3169 3169 3169 3170 3170 3170 3170 3170 3170 3170 3169 3168 3168 3169 3171 3173 3173 3175 3175 3176 3176 3176 3176 3176 3176 3176 3176 3178 3180 3182 3182
3164 3164 3164 3164 3165 3166 3166 3166 3166 3167 3167 3167 3167 3166 3166 3166 3167 3168 3170 3171 3172 3172 3173 3173 3174 3174 3175 3176 3175 3175 3177 3178 3180
3158 3159 3159 3159 3160 3160 3160 3161 3162 3162 3162 3163 3164 3165 3165 3164 3164 3164 3165 3167 3169 3169 3169 3170 3170 3172 3172 3174 3174 3174 3174 3174 3177
3153 3152 3152 3153 3153 3154 3154 3154 3155 3156 3157 3157 3158 3160 3161 3161 3161 3162 3162 3163 3165 3166 3166 3166 3167 3168 3169 3169 3171 3171 3172 3171 3172
3147 3146 3146 3146 3146 3146 3147 3147 3148 3148 3149 3151 3152 3153 3154 3156 3157 3157 3157 3159 3160 3163 3163 3163 3164 3164 3166 3166 3167 3168 3167 3167 3167
3139 3139 3139 3139 3139 3139 3139 3139 3139 3140 3141 3142 3143 3145 3147 3149 3151 3152 3152 3153 3155 3157 3159 3159 3160 3160 3160 3161 3162 3163 3162 3163 3164
3132 3131 3131 3131 3131 3131 3131 3131 3130 3130 3131 3133 3134 3136 3138 3141 3142 3144 3145 3147 3148 3149 3152 3154 3154 3155 3156 3156 3156 3157 3159 3159 3159
3123 3123 3123 3122 3122 3122 3122 3121 3121 3121 3122 3122 3124 3126 3128 3130 3133 3135 3136 3137 3139 3141 3145 3147 3148 3149 3149 3151 3152 3152 3153 3153 3153
3113 3113 3112 3111 3111 3111 3111 3111 3110 3110 3111 3112 3114 3115 3117 3119 3121 3124 3125 3128 3129 3132 3134 3137 3139 3141 3142 3143 3144 3145 3146 3147 3147
3105 3103 3101 3100 3099 3098 3097 3099 3099 3098 3096 3097 3102 3105 3106 3107 3109 3111 3114 3117 3117 3119 3122 3125 3128 3130 3133 3134 3136 3137 3139 3140 3141
3097 3096 3094 3091 3089 3086 3084 3083 3084 3085 3083 3081 3082 3087 3098 3095 3097 3098 3100 3103 3106 3110 3111 3113 3116 3119 3122 3125 3127 3129 3131 3132 3134
3084 3082 3080 3078 3077 3076 3074 3072 3069 3070 3072 3069 3069 3067 3069 3078 3086 3087 3087 3089 3093 3096 3100 3102 3104 3107 3109 3112 3115 3119 3122 3123 3124
3068 3066 3065 3064 3063 3062 3061 3060 3060 3058 3057 3060 3056 3054 3052 3052 3057 3074 3075 3073 3079 3082 3086 3088 3092 3095 3098 3101 3105 3109 3111 3114 3115
3057 3055 3053 3051 3049 3048 3047 3047 3046 3045 3046 3045 3046 3045 3043 3040 3037 3036 3058 3061 3062 3067 3068 3075 3078 3082 3085 3090 3092 3096 3098 3103 3104
Wind_Speed
6 3 1 1 1 1 1 1 3 5 5 3 3 1 3 7 8 8 7 7 8 7 7 6 4 4 3 4 4 3 5 5 6
3 5 5 5 3 1 4 4 3 3 5 5 3 2 2 4 7 9 9 9 10 11 10 10 9 8 6 7 5 5 6 6 6
5 6 5 6 5 6 3 4 5 5 6 6 6 5 5 3 3 5 9 10 11 13 12 14 14 12 9 10 9 7 8 7 7
10 11 12 8 7 5 6 6 5 7 8 8 9 9 8 7 6 4 7 10 11 14 14 15 15 14 12 11 11 11 10 9 9
12 12 10 9 8 7 6 6 7 8 9 9 11 12 12 11 10 9 7 8 9 11 15 15 17 16 15 13 13 13 13 11 12
17 17 15 13 13 12 9 9 10 10 11 12 13 14 15 14 12 12 12 9 10 11 12 15 16 17 16 16 17 16 15 14 13
23 22 19 17 18 17 16 16 13 13 13 13 14 16 17 17 16 15 15 12 13 13 15 16 16 16 16 18 21 18 17 16 16
24 25 25 23 24 22 21 21 20 18 17 16 17 16 16 16 16 15 14 14 13 15 17 19 15 13 14 14 19 19 17 18 17
24 25 26 28 28 28 27 26 24 22 22 20 20 20 20 20 21 20 17 16 14 10 13 14 16 17 17 17 21 21 18 18 19
27 27 28 29 29 30 31 31 30 29 28 27 26 26 26 25 24 25 25 22 18 16 15 15 15 21 20 18 20 27 29 28 24
30 31 31 31 32 33 35 35 36 35 34 33 33 32 31 31 31 30 28 27 25 20 19 18 17 20 25 24 23 26 27 27 27
34 34 35 35 36 36 37 38 39 40 39 38 37 37 36 34 34 35 34 32 31 29 23 26 21 21 21 25 28 25 26 24 24
35 36 37 38 39 40 40 41 42 43 44 43 43 42 40 41 39 36 32 33 32 34 31 27 26 25 24 23 26 28 30 29 28
35 36 38 40 42 43 43 44 46 46 46 47 46 45 45 43 41 42 41 39 37 35 39 33 34 33 29 27 29 30 31 31 31
36 37 38 40 42 43 45 47 49 50 51 51 49 47 47 48 46 46 45 46 44 43 41 39 37 38 37 36 33 33 32 32 33
41 44 47 48 49 50 50 50 50 52 55 56 55 51 50 49 48 49 46 48 46 42 41 36 43 45 43 41 36 34 34 35 34
46 47 47 48 50 52 54 55 55 55 57 59 59 58 52 52 51 51 51 50 47 47 45 47 45 46 43 47 46 40 37 36 37
52 51 48 47 46 45 47 49 52 53 53 57 59 62 62 60 54 50 54 53 52 53 54 51 51 51 51 50 48 47 41 41 40
50 47 46 45 44 43 43 43 44 47 49 49 53 56 62 65 67 58 51 57 55 54 55 56 56 52 50 49 47 50 42 41 40
42 41 40 41 42 43 42 41 40 42 42 44 47 51 53 57 65 71 61 56 55 55 56 58 57 55 54 56 53 51 50 51 48
Wind_Direction
4 12 52 8 267 234 254 325 305 276 244 211 206 167 236 228 219 221 241 259 256 255 249 244 238 230 233 214 181 178 167 170 169
337 350 326 320 292 329 252 249 245 272 267 247 245 223 204 252 256 252 242 249 258 260 258 254 253 249 252 254 229 204 214 190 205
229 277 311 297 297 294 288 241 243 246 261 251 244 237 238 251 317 286 267 262 260 260 258 258 262 265 252 251 255 250 235 219 220
252 256 269 269 274 268 285 284 239 246 250 251 249 237 231 245 256 283 293 294 281 263 260 259 260 261 261 245 248 250 246 237 236
269 270 272 273 265 266 264 257 272 269 246 242 244 257 256 252 250 260 262 291 303 283 273 268 263 259 256 249 244 244 248 237 243
260 264 268 269 259 253 247 256 269 264 273 264 250 240 251 259 263 267 268 278 299 298 288 280 273 266 258 259 242 240 244 244 241
258 261 264 262 261 257 258 262 261 265 264 263 261 261 254 250 255 260 268 271 274 277 279 288 275 274 266 265 250 240 239 247 246
257 258 261 260 260 262 259 262 263 261 262 265 261 252 260 265 256 255 260 267 266 272 271 273 269 273 244 240 261 252 236 239 248
260 258 257 258 259 260 260 261 260 258 256 257 263 257 258 263 266 265 260 266 268 273 272 280 252 254 266 252 245 258 236 251 247
262 261 261 259 257 258 258 258 258 256 258 260 255 256 261 261 262 266 271 265 263 259 261 266 268 250 257 262 251 254 262 264 257
261 262 263 261 259 259 259 258 258 258 256 256 256 257 256 257 259 263 268 273 272 254 258 259 259 258 254 262 264 266 272 263 259
265 264 262 261 261 261 261 260 259 257 258 258 256 257 257 254 258 260 267 263 267 273 264 253 252 252 258 255 259 264 269 268 273
264 265 266 265 263 262 261 260 261 261 260 257 257 258 259 256 256 254 257 260 265 262 268 263 249 248 252 261 256 256 259 267 274
273 271 268 267 267 267 266 263 261 259 260 261 259 257 258 257 253 254 258 256 256 260 259 258 255 247 254 256 259 257 257 262 267
283 282 280 278 275 271 268 268 268 266 261 258 258 260 258 256 255 256 258 252 255 254 259 257 253 248 255 259 256 258 257 259 261
280 283 284 283 281 279 276 273 269 268 268 265 259 257 258 258 257 255 256 251 251 253 251 252 251 252 245 251 255 254 257 257 258
286 285 283 281 280 280 278 276 274 273 272 270 268 262 252 257 259 258 253 249 248 249 253 249 248 252 247 245 248 252 253 254 255
299 299 297 293 289 284 279 278 276 275 273 274 273 272 266 256 247 253 257 255 249 247 247 249 252 248 248 246 241 246 250 252 248
311 309 307 304 301 298 295 288 282 279 276 273 274 275 273 270 260 246 248 253 253 248 244 246 248 249 246 248 242 244 242 246 250
311 311 311 310 309 308 305 300 295 290 284 278 272 270 270 272 271 264 246 245 249 250 247 243 242 245 249 244 247 248 239 245 244